This is the latest recevied weather packets stored in our database for station/object KD2RHT-13. If no packets are shown the sender has not sent any weather packets the latest 10 day(s).
| Time | Temp. | Humidity | Pressure | Rain* | Wind** | Luminosity | Snow |
|---|---|---|---|---|---|---|---|
| 1777590674 | 9.44° C | 69% | 1012.7 hPa | 0 mm | - | 29 W/m² | - |
| 1777590370 | 9.44° C | 69% | 1013.1 hPa | 0 mm | - | 30 W/m² | - |
| 1777590067 | 10° C | 69% | 1012.7 hPa | 0 mm | - | 35 W/m² | - |
| 1777589764 | 10° C | 67% | 1012.7 hPa | 0 mm | - | 41 W/m² | - |
| 1777589462 | 10° C | 69% | 1012.7 hPa | 0 mm | - | 62 W/m² | - |
| 1777589157 | 10° C | 68% | 1012.7 hPa | 0 mm | - | 71 W/m² | - |
| 1777588854 | 10° C | 68% | 1012.7 hPa | 0 mm | - | 98 W/m² | - |
| 1777588550 | 10° C | 67% | 1012.7 hPa | 0 mm | - | 103 W/m² | - |
| 1777588240 | 10° C | 71% | 1012.7 hPa | 0 mm | - | 96 W/m² | - |
| 1777587935 | 10° C | 70% | 1012.7 hPa | 0 mm | - | 95 W/m² | - |
| 1777587631 | 10° C | 71% | 1012.4 hPa | 0 mm | - | 97 W/m² | - |
| 1777587327 | 10° C | 70% | 1012.4 hPa | 0 mm | - | 101 W/m² | - |
| 1777587022 | 9.44° C | 70% | 1012.4 hPa | 0 mm | - | 95 W/m² | - |
| 1777586718 | 10° C | 69% | 1012.4 hPa | 0 mm | - | 85 W/m² | - |
| 1777586414 | 10° C | 70% | 1012.7 hPa | 0 mm | - | 95 W/m² | - |
| 1777586114 | 10° C | 69% | 1012.4 hPa | 0 mm | - | 121 W/m² | - |
| 1777585812 | 10° C | 69% | 1012.4 hPa | 0 mm | - | 150 W/m² | - |
| 1777585511 | 10° C | 70% | 1012.7 hPa | 0 mm | - | 138 W/m² | - |
| 1777585207 | 10° C | 71% | 1012.4 hPa | 0 mm | - | 130 W/m² | - |
| 1777584902 | 10° C | 71% | 1012.4 hPa | 0 mm | - | 134 W/m² | - |
| 1777584600 | 10° C | 72% | 1012.4 hPa | 0 mm | - | 151 W/m² | - |
| 1777584297 | 10° C | 72% | 1012.4 hPa | 0 mm | - | 180 W/m² | - |
| 1777583992 | 10° C | 71% | 1012.4 hPa | 0 mm | - | 180 W/m² | - |
| 1777583687 | 10° C | 71% | 1012.4 hPa | 0 mm | - | 181 W/m² | - |
| 1777583387 | 10° C | 71% | 1012.1 hPa | 0 mm | - | 183 W/m² | - |
* Rain latest hour (hover to see other rain measurements)
** Current wind speed in m/s (hover to see current wind gust speed)